Time,TemperatureF,DewpointF,PressureIn,WindDirection,WindDirectionDegrees,WindSpeedMPH,WindSpeedGustMPH,Humidity,HourlyPrecipIn,Conditions,Clouds,dailyrainin,SoftwareType,DateUTC
2013-08-24 00:02:00,73.8,72.0,30.02,West,267,0.0,0.0,94,0.00,CLR,,0.00,WeatherDisplay:10.37,2013-08-24 05:02:00,
2013-08-24 00:07:00,73.7,71.9,30.02,West,267,0.0,0.0,94,0.00,CLR,,0.00,WeatherDisplay:10.37,2013-08-24 05:07:00,
2013-08-24 00:12:00,73.5,71.7,30.02,West,267,0.0,0.0,94,0.00,CLR,,0.00,WeatherDisplay:10.37,2013-08-24 05:12:00,
2013-08-24 00:17:00,73.3,71.5,30.02,West,267,0.0,0.0,94,0.00,CLR,,0.00,WeatherDisplay:10.37,2013-08-24 05:17:00,
2013-08-24 00:22:00,73.1,71.3,30.02,West,267,0.0,0.0,94,0.00,CLR,,0.00,WeatherDisplay:10.37,2013-08-24 05:22:00,
2013-08-24 00:27:00,73.1,71.3,30.02,West,267,0.0,0.0,94,0.00,CLR,,0.00,WeatherDisplay:10.37,2013-08-24 05:27:00,
2013-08-24 00:32:00,73.0,71.2,30.02,West,267,0.0,0.0,94,0.00,CLR,,0.00,WeatherDisplay:10.37,2013-08-24 05:32:00,
2013-08-24 00:37:00,72.9,71.1,30.02,West,267,0.0,0.0,94,0.00,CLR,,0.00,WeatherDisplay:10.37,2013-08-24 05:37:00,
2013-08-24 00:42:00,72.8,71.0,30.02,West,267,0.0,0.0,94,0.00,CLR,,0.00,WeatherDisplay:10.37,2013-08-24 05:42:00,
2013-08-24 00:47:00,72.7,70.9,30.02,West,267,0.0,0.0,94,0.00,CLR,,0.00,WeatherDisplay:10.37,2013-08-24 05:47:00,
2013-08-24 00:52:00,72.8,71.0,30.02,West,267,0.0,0.0,94,0.00,CLR,,0.00,WeatherDisplay:10.37,2013-08-24 05:52:00,
2013-08-24 00:57:00,73.0,71.5,30.02,West,267,0.0,0.0,95,0.00,CLR,,0.00,WeatherDisplay:10.37,2013-08-24 05:57:00,
2013-08-24 01:02:00,73.4,71.9,30.02,West,267,0.0,0.0,95,0.00,CLR,,0.00,WeatherDisplay:10.37,2013-08-24 06:02:00,
2013-08-24 01:07:00,73.7,72.5,30.02,West,267,0.0,0.0,96,0.00,CLR,,0.00,WeatherDisplay:10.37,2013-08-24 06:07:00,
2013-08-24 01:12:00,73.7,72.2,30.02,West,267,0.0,0.0,95,0.00,CLR,,0.00,WeatherDisplay:10.37,2013-08-24 06:12:00,
2013-08-24 01:17:00,73.8,72.3,30.02,West,267,0.0,0.0,95,0.00,CLR,,0.00,WeatherDisplay:10.37,2013-08-24 06:17:00,
2013-08-24 01:22:00,73.6,72.1,30.02,West,267,0.0,0.0,95,0.00,CLR,,0.00,WeatherDisplay:10.37,2013-08-24 06:22:00,
2013-08-24 01:27:00,73.6,72.1,30.02,West,267,0.0,0.0,95,0.00,CLR,,0.00,WeatherDisplay:10.37,2013-08-24 06:27:00,
2013-08-24 01:32:00,73.5,71.7,30.02,West,267,0.0,0.0,94,0.00,CLR,,0.00,WeatherDisplay:10.37,2013-08-24 06:32:00,
2013-08-24 01:37:00,73.5,72.0,30.02,West,267,0.0,0.0,95,0.00,CLR,,0.00,WeatherDisplay:10.37,2013-08-24 06:37:00,
2013-08-24 01:42:00,73.6,72.1,30.02,West,267,0.0,0.0,95,0.00,CLR,,0.00,WeatherDisplay:10.37,2013-08-24 06:42:00,
2013-08-24 01:47:00,73.5,71.7,30.02,West,267,0.0,0.0,94,0.00,CLR,,0.00,WeatherDisplay:10.37,2013-08-24 06:47:00,
2013-08-24 01:52:00,73.2,71.4,30.02,West,267,0.0,0.0,94,0.00,CLR,,0.00,WeatherDisplay:10.37,2013-08-24 06:52:00,
2013-08-24 01:57:00,73.2,71.4,30.03,West,267,0.0,0.0,94,0.00,CLR,,0.00,WeatherDisplay:10.37,2013-08-24 06:57:00,
2013-08-24 02:02:00,73.1,71.3,30.03,West,267,0.0,0.0,94,0.00,CLR,,0.00,WeatherDisplay:10.37,2013-08-24 07:02:00,
2013-08-24 02:07:00,72.9,71.1,30.03,West,267,0.0,0.0,94,0.00,CLR,,0.00,WeatherDisplay:10.37,2013-08-24 07:07:00,
2013-08-24 02:12:00,72.6,70.8,30.03,West,267,0.0,0.0,94,0.00,CLR,,0.00,WeatherDisplay:10.37,2013-08-24 07:12:00,
2013-08-24 02:17:00,72.5,70.7,30.03,West,267,0.0,0.0,94,0.00,CLR,,0.00,WeatherDisplay:10.37,2013-08-24 07:17:00,
2013-08-24 02:22:00,72.3,70.5,30.03,West,267,0.0,0.0,94,0.00,CLR,,0.00,WeatherDisplay:10.37,2013-08-24 07:22:00,
2013-08-24 02:27:00,72.1,70.3,30.03,West,267,0.0,0.0,94,0.00,CLR,,0.00,WeatherDisplay:10.37,2013-08-24 07:27:00,
2013-08-24 02:32:00,71.9,70.1,30.03,West,267,0.0,0.0,94,0.00,CLR,,0.00,WeatherDisplay:10.37,2013-08-24 07:32:00,
2013-08-24 02:37:00,71.7,69.9,30.03,West,267,0.0,0.0,94,0.00,CLR,,0.00,WeatherDisplay:10.37,2013-08-24 07:37:00,
2013-08-24 02:42:00,71.5,69.7,30.03,West,267,0.0,0.0,94,0.00,CLR,,0.00,WeatherDisplay:10.37,2013-08-24 07:42:00,
2013-08-24 02:47:00,71.4,69.6,30.03,West,267,0.0,0.0,94,0.00,CLR,,0.00,WeatherDisplay:10.37,2013-08-24 07:47:00,
2013-08-24 02:52:00,71.3,69.5,30.03,West,267,0.0,0.0,94,0.00,CLR,,0.00,WeatherDisplay:10.37,2013-08-24 07:52:00,
2013-08-24 02:57:00,71.1,69.3,30.03,West,267,0.0,0.0,94,0.00,CLR,,0.00,WeatherDisplay:10.37,2013-08-24 07:57:00,
2013-08-24 03:02:00,70.9,69.1,30.03,West,267,0.0,0.0,94,0.00,CLR,,0.00,WeatherDisplay:10.37,2013-08-24 08:02:00,
2013-08-24 03:07:00,70.8,69.0,30.03,West,267,0.0,0.0,94,0.00,CLR,,0.00,WeatherDisplay:10.37,2013-08-24 08:07:00,
2013-08-24 03:12:00,70.7,68.9,30.03,West,267,0.0,0.0,94,0.00,CLR,,0.00,WeatherDisplay:10.37,2013-08-24 08:12:00,
2013-08-24 03:17:00,70.7,69.2,30.03,West,267,0.0,0.0,95,0.00,CLR,,0.00,WeatherDisplay:10.37,2013-08-24 08:17:00,
2013-08-24 03:22:00,70.7,69.2,30.03,West,267,0.0,0.0,95,0.00,CLR,,0.00,WeatherDisplay:10.37,2013-08-24 08:22:00,
2013-08-24 03:27:00,70.9,69.7,30.03,West,267,0.0,0.0,96,0.00,CLR,,0.00,WeatherDisplay:10.37,2013-08-24 08:27:00,
2013-08-24 03:32:00,71.3,70.1,30.04,West,267,0.0,0.0,96,0.00,CLR,,0.00,WeatherDisplay:10.37,2013-08-24 08:32:00,
2013-08-24 03:37:00,71.7,70.5,30.04,West,267,0.0,0.0,96,0.00,CLR,,0.00,WeatherDisplay:10.37,2013-08-24 08:37:00,
2013-08-24 03:42:00,71.7,70.5,30.04,West,267,0.0,0.0,96,0.00,CLR,,0.00,WeatherDisplay:10.37,2013-08-24 08:42:00,
2013-08-24 03:47:00,71.8,70.6,30.04,West,267,0.0,0.0,96,0.00,CLR,,0.00,WeatherDisplay:10.37,2013-08-24 08:47:00,
2013-08-24 03:52:00,71.9,70.7,30.04,West,267,0.0,0.0,96,0.00,CLR,,0.00,WeatherDisplay:10.37,2013-08-24 08:52:00,
2013-08-24 03:57:00,71.8,70.6,30.04,West,267,0.0,0.0,96,0.00,CLR,,0.00,WeatherDisplay:10.37,2013-08-24 08:57:00,
2013-08-24 04:02:00,71.5,70.0,30.04,West,267,0.0,0.0,95,0.00,CLR,,0.00,WeatherDisplay:10.37,2013-08-24 09:02:00,
2013-08-24 04:07:00,71.1,69.6,30.04,West,267,0.0,0.0,95,0.00,CLR,,0.00,WeatherDisplay:10.37,2013-08-24 09:07:00,
2013-08-24 04:12:00,71.0,69.5,30.04,West,267,0.0,0.0,95,0.00,CLR,,0.00,WeatherDisplay:10.37,2013-08-24 09:12:00,
2013-08-24 04:17:00,70.8,69.3,30.04,West,267,0.0,0.0,95,0.00,CLR,,0.00,WeatherDisplay:10.37,2013-08-24 09:17:00,
2013-08-24 04:22:00,70.7,69.2,30.04,West,267,0.0,0.0,95,0.00,CLR,,0.00,WeatherDisplay:10.37,2013-08-24 09:22:00,
2013-08-24 04:27:00,70.5,69.0,30.04,West,267,0.0,0.0,95,0.00,CLR,,0.00,WeatherDisplay:10.37,2013-08-24 09:27:00,
2013-08-24 04:32:00,70.3,68.8,30.04,West,267,0.0,0.0,95,0.00,CLR,,0.00,WeatherDisplay:10.37,2013-08-24 09:32:00,
2013-08-24 04:37:00,70.1,68.6,30.04,West,267,0.0,0.0,95,0.00,CLR,,0.00,WeatherDisplay:10.37,2013-08-24 09:37:00,
2013-08-24 04:42:00,70.0,68.5,30.04,West,267,0.0,0.0,95,0.00,CLR,,0.00,WeatherDisplay:10.37,2013-08-24 09:42:00,
2013-08-24 04:47:00,69.9,68.4,30.04,West,267,0.0,0.0,95,0.00,CLR,,0.00,WeatherDisplay:10.37,2013-08-24 09:47:00,
2013-08-24 04:52:00,69.8,68.3,30.05,West,267,0.0,0.0,95,0.00,CLR,,0.00,WeatherDisplay:10.37,2013-08-24 09:52:00,
2013-08-24 04:57:00,69.7,68.2,30.05,West,267,0.0,0.0,95,0.00,CLR,,0.00,WeatherDisplay:10.37,2013-08-24 09:57:00,
2013-08-24 05:02:00,69.7,68.2,30.05,West,267,0.0,0.0,95,0.00,CLR,,0.00,WeatherDisplay:10.37,2013-08-24 10:02:00,
2013-08-24 05:07:00,69.4,67.9,30.05,West,267,0.0,0.0,95,0.00,CLR,,0.00,WeatherDisplay:10.37,2013-08-24 10:07:00,
2013-08-24 05:12:00,69.3,67.8,30.05,West,267,0.0,0.0,95,0.00,CLR,,0.00,WeatherDisplay:10.37,2013-08-24 10:12:00,
2013-08-24 05:17:00,69.2,67.7,30.06,West,267,0.0,0.0,95,0.00,CLR,,0.00,WeatherDisplay:10.37,2013-08-24 10:17:00,
2013-08-24 05:22:00,69.2,68.0,30.05,West,267,0.0,0.0,96,0.00,CLR,,0.00,WeatherDisplay:10.37,2013-08-24 10:22:00,
2013-08-24 05:27:00,69.2,68.0,30.06,West,267,0.0,0.0,96,0.00,CLR,,0.00,WeatherDisplay:10.37,2013-08-24 10:27:00,
2013-08-24 05:32:00,69.9,69.0,30.06,West,267,0.0,0.0,97,0.00,CLR,,0.00,WeatherDisplay:10.37,2013-08-24 10:32:00,
2013-08-24 05:37:00,70.3,69.4,30.06,West,267,0.0,0.0,97,0.00,CLR,,0.00,WeatherDisplay:10.37,2013-08-24 10:37:00,
2013-08-24 05:42:00,70.4,69.2,30.06,West,267,0.0,0.0,96,0.00,CLR,,0.00,WeatherDisplay:10.37,2013-08-24 10:42:00,
2013-08-24 05:47:00,70.4,69.2,30.06,West,267,0.0,0.0,96,0.00,CLR,,0.00,WeatherDisplay:10.37,2013-08-24 10:47:00,
2013-08-24 05:52:00,70.4,69.2,30.06,West,267,0.0,0.0,96,0.00,CLR,,0.00,WeatherDisplay:10.37,2013-08-24 10:52:00,
2013-08-24 05:57:00,70.5,69.3,30.06,West,267,0.0,0.0,96,0.00,CLR,,0.00,WeatherDisplay:10.37,2013-08-24 10:57:00,
2013-08-24 06:02:00,70.4,69.2,30.06,West,267,0.0,0.0,96,0.00,CLR,,0.00,WeatherDisplay:10.37,2013-08-24 11:02:00,
2013-08-24 06:07:00,70.4,69.2,30.07,West,267,0.0,0.0,96,0.00,CLR,,0.00,WeatherDisplay:10.37,2013-08-24 11:07:00,
2013-08-24 06:12:00,70.5,69.3,30.07,West,267,0.0,0.0,96,0.00,CLR,,0.00,WeatherDisplay:10.37,2013-08-24 11:12:00,
2013-08-24 06:17:00,70.4,69.2,30.07,West,267,0.0,0.0,96,0.00,CLR,,0.00,WeatherDisplay:10.37,2013-08-24 11:17:00,
2013-08-24 06:22:00,70.3,69.1,30.08,West,267,0.0,0.0,96,0.00,CLR,,0.00,WeatherDisplay:10.37,2013-08-24 11:22:00,
2013-08-24 06:27:00,70.2,69.0,30.08,West,267,0.0,0.0,96,0.00,CLR,,0.00,WeatherDisplay:10.37,2013-08-24 11:27:00,
2013-08-24 06:32:00,69.9,68.7,30.08,West,267,0.0,0.0,96,0.00,CLR,,0.00,WeatherDisplay:10.37,2013-08-24 11:32:00,
2013-08-24 06:37:00,69.7,68.5,30.08,West,267,0.0,0.0,96,0.00,CLR,,0.00,WeatherDisplay:10.37,2013-08-24 11:37:00,
2013-08-24 06:42:00,69.9,69.0,30.08,West,267,0.0,0.0,97,0.00,CLR,,0.00,WeatherDisplay:10.37,2013-08-24 11:42:00,
2013-08-24 06:47:00,70.0,68.8,30.09,West,267,0.0,0.0,96,0.00,CLR,,0.00,WeatherDisplay:10.37,2013-08-24 11:47:00,
2013-08-24 06:52:00,69.8,68.6,30.09,West,267,0.0,0.0,96,0.00,CLR,,0.00,WeatherDisplay:10.37,2013-08-24 11:52:00,
2013-08-24 06:57:00,69.7,68.8,30.09,West,267,0.0,0.0,97,0.00,CLR,,0.00,WeatherDisplay:10.37,2013-08-24 11:57:00,
2013-08-24 07:02:00,69.9,69.0,30.09,West,267,0.0,0.0,97,0.00,CLR,,0.00,WeatherDisplay:10.37,2013-08-24 12:02:00,
2013-08-24 07:07:00,70.2,69.3,30.09,West,267,0.0,0.0,97,0.00,CLR,,0.00,WeatherDisplay:10.37,2013-08-24 12:07:00,
2013-08-24 07:12:00,70.3,69.4,30.09,West,267,0.0,0.0,97,0.00,CLR,,0.00,WeatherDisplay:10.37,2013-08-24 12:12:00,
2013-08-24 07:17:00,70.3,69.4,30.09,West,267,0.0,0.0,97,0.00,CLR,,0.00,WeatherDisplay:10.37,2013-08-24 12:17:00,
2013-08-24 07:22:00,70.3,69.4,30.09,West,267,0.0,0.0,97,0.00,CLR,,0.00,WeatherDisplay:10.37,2013-08-24 12:22:00,
2013-08-24 07:27:00,70.5,69.6,30.10,West,267,0.0,0.0,97,0.00,CLR,,0.00,WeatherDisplay:10.37,2013-08-24 12:27:00,
2013-08-24 07:32:00,70.7,69.8,30.10,West,267,0.0,0.0,97,0.00,CLR,,0.00,WeatherDisplay:10.37,2013-08-24 12:32:00,
2013-08-24 07:37:00,71.0,70.1,30.10,West,267,0.0,0.0,97,0.00,CLR,,0.00,WeatherDisplay:10.37,2013-08-24 12:37:00,
2013-08-24 07:43:00,71.2,70.3,30.10,West,267,0.0,0.0,97,0.00,CLR,,0.00,WeatherDisplay:10.37,2013-08-24 12:43:00,
2013-08-24 07:48:00,71.4,70.5,30.10,West,267,0.0,0.0,97,0.00,CLR,,0.00,WeatherDisplay:10.37,2013-08-24 12:48:00,
2013-08-24 07:53:00,71.6,70.7,30.10,West,267,0.0,0.0,97,0.00,CLR,,0.00,WeatherDisplay:10.37,2013-08-24 12:53:00,
2013-08-24 07:58:00,72.0,71.1,30.10,West,267,0.0,0.0,97,0.00,CLR,,0.00,WeatherDisplay:10.37,2013-08-24 12:58:00,
2013-08-24 08:03:00,72.2,71.3,30.11,West,267,0.0,0.0,97,0.00,CLR,,0.00,WeatherDisplay:10.37,2013-08-24 13:03:00,
2013-08-24 08:08:00,72.6,71.7,30.11,West,267,0.0,0.0,97,0.00,CLR,,0.00,WeatherDisplay:10.37,2013-08-24 13:08:00,
2013-08-24 08:13:00,72.9,72.0,30.11,West,267,0.0,0.0,97,0.00,CLR,,0.00,WeatherDisplay:10.37,2013-08-24 13:13:00,
2013-08-24 08:18:00,73.1,72.2,30.11,West,267,0.0,0.0,97,0.00,CLR,,0.00,WeatherDisplay:10.37,2013-08-24 13:18:00,
2013-08-24 08:23:00,73.4,72.5,30.11,West,267,0.0,0.0,97,0.00,CLR,,0.00,WeatherDisplay:10.37,2013-08-24 13:23:00,
2013-08-24 08:28:00,73.7,72.8,30.11,West,267,0.0,0.0,97,0.00,CLR,,0.00,WeatherDisplay:10.37,2013-08-24 13:28:00,
2013-08-24 08:33:00,74.2,73.3,30.11,West,267,0.0,0.0,97,0.00,CLR,,0.00,WeatherDisplay:10.37,2013-08-24 13:33:00,
2013-08-24 08:38:00,74.4,73.5,30.11,West,267,0.0,0.0,97,0.00,CLR,,0.00,WeatherDisplay:10.37,2013-08-24 13:38:00,
2013-08-24 08:43:00,74.7,73.5,30.11,West,267,0.0,0.0,96,0.00,CLR,,0.00,WeatherDisplay:10.37,2013-08-24 13:43:00,
2013-08-24 08:48:00,75.1,73.9,30.11,West,267,0.0,0.0,96,0.00,CLR,,0.00,WeatherDisplay:10.37,2013-08-24 13:48:00,
2013-08-24 08:53:00,75.6,74.4,30.12,West,267,0.0,0.0,96,0.00,CLR,,0.00,WeatherDisplay:10.37,2013-08-24 13:53:00,
2013-08-24 08:58:00,75.9,74.4,30.12,West,267,0.0,0.0,95,0.00,CLR,,0.00,WeatherDisplay:10.37,2013-08-24 13:58:00,
2013-08-24 09:03:00,76.5,75.0,30.11,West,267,0.0,0.0,95,0.00,CLR,,0.00,WeatherDisplay:10.37,2013-08-24 14:03:00,
2013-08-24 09:08:00,77.0,75.1,30.11,West,267,0.0,0.0,94,0.00,CLR,,0.00,WeatherDisplay:10.37,2013-08-24 14:08:00,
2013-08-24 09:13:00,77.7,75.5,30.11,SSW,194,0.0,0.0,93,0.00,CLR,,0.00,WeatherDisplay:10.37,2013-08-24 14:13:00,
2013-08-24 09:18:00,78.2,75.4,30.12,SSW,194,0.0,0.0,91,0.00,CLR,,0.00,WeatherDisplay:10.37,2013-08-24 14:18:00,
2013-08-24 09:23:00,78.7,75.8,30.12,SE,132,0.0,0.0,91,0.00,CLR,,0.00,WeatherDisplay:10.37,2013-08-24 14:23:00,
2013-08-24 09:28:00,79.2,75.7,30.12,ESE,122,0.0,0.0,89,0.00,CLR,,0.00,WeatherDisplay:10.37,2013-08-24 14:28:00,
2013-08-24 09:33:00,79.6,75.7,30.12,ESE,122,0.0,0.0,88,0.00,CLR,,0.00,WeatherDisplay:10.37,2013-08-24 14:33:00,
2013-08-24 09:38:00,80.0,75.8,30.12,East,100,0.0,0.0,87,0.00,CLR,,0.00,WeatherDisplay:10.37,2013-08-24 14:38:00,
2013-08-24 09:43:00,80.4,75.5,30.12,East,100,0.0,0.0,85,0.00,CLR,,0.00,WeatherDisplay:10.37,2013-08-24 14:43:00,
2013-08-24 09:48:00,80.8,75.9,30.12,East,95,0.0,0.0,85,0.00,CLR,,0.00,WeatherDisplay:10.37,2013-08-24 14:48:00,
2013-08-24 09:53:00,81.3,76.4,30.12,ENE,68,0.0,0.0,85,0.00,CLR,,0.00,WeatherDisplay:10.37,2013-08-24 14:53:00,
2013-08-24 09:58:00,81.4,75.7,30.12,ENE,68,0.0,0.0,83,0.00,CLR,,0.00,WeatherDisplay:10.37,2013-08-24 14:58:00,
2013-08-24 10:03:00,81.4,75.0,30.12,ENE,73,0.0,0.0,81,0.00,CLR,,0.00,WeatherDisplay:10.37,2013-08-24 15:03:00,
2013-08-24 10:08:00,81.7,76.0,30.12,SE,126,0.0,0.0,83,0.00,CLR,,0.00,WeatherDisplay:10.37,2013-08-24 15:08:00,
2013-08-24 10:13:00,82.0,76.0,30.12,SE,126,0.0,0.0,82,0.00,CLR,,0.00,WeatherDisplay:10.37,2013-08-24 15:13:00,
2013-08-24 10:18:00,82.4,76.0,30.12,ESE,107,0.0,0.0,81,0.00,CLR,,0.00,WeatherDisplay:10.37,2013-08-24 15:18:00,
2013-08-24 10:23:00,82.7,76.6,30.13,ESE,120,2.0,2.0,82,0.00,CLR,,0.00,WeatherDisplay:10.37,2013-08-24 15:23:00,
2013-08-24 10:28:00,83.2,75.2,30.13,SSW,203,0.0,0.0,77,0.00,CLR,,0.00,WeatherDisplay:10.37,2013-08-24 15:28:00,
2013-08-24 10:33:00,83.2,75.2,30.13,SE,128,0.0,0.0,77,0.00,CLR,,0.00,WeatherDisplay:10.37,2013-08-24 15:33:00,
2013-08-24 10:38:00,83.4,75.0,30.13,ESE,119,1.1,1.1,76,0.00,CLR,,0.00,WeatherDisplay:10.37,2013-08-24 15:38:00,
2013-08-24 10:43:00,83.4,74.2,30.13,ESE,114,0.0,0.0,74,0.00,CLR,,0.00,WeatherDisplay:10.37,2013-08-24 15:43:00,
2013-08-24 10:48:00,83.2,74.0,30.13,ESE,114,0.0,0.0,74,0.00,CLR,,0.00,WeatherDisplay:10.37,2013-08-24 15:48:00,
2013-08-24 10:53:00,83.1,73.9,30.13,ESE,114,0.0,0.0,74,0.00,CLR,,0.00,WeatherDisplay:10.37,2013-08-24 15:53:00,
2013-08-24 10:58:00,83.2,74.4,30.13,ESE,114,0.0,0.0,75,0.00,CLR,,0.00,WeatherDisplay:10.37,2013-08-24 15:58:00,
2013-08-24 11:03:00,83.6,74.0,30.13,ESE,113,0.0,0.0,73,0.00,CLR,,0.00,WeatherDisplay:10.37,2013-08-24 16:03:00,
2013-08-24 11:08:00,84.0,75.2,30.13,ESE,113,0.0,0.0,75,0.00,CLR,,0.00,WeatherDisplay:10.37,2013-08-24 16:08:00,
2013-08-24 11:13:00,84.3,74.7,30.12,ESE,113,0.0,0.0,73,0.00,CLR,,0.00,WeatherDisplay:10.37,2013-08-24 16:13:00,
2013-08-24 11:18:00,84.6,74.6,30.12,SE,126,2.3,2.3,72,0.00,CLR,,0.00,WeatherDisplay:10.37,2013-08-24 16:18:00,
2013-08-24 11:23:00,85.1,75.1,30.12,ESE,113,2.3,2.3,72,0.00,CLR,,0.00,WeatherDisplay:10.37,2013-08-24 16:23:00,
2013-08-24 11:28:00,85.7,74.8,30.12,ESE,114,0.0,0.0,70,0.00,CLR,,0.00,WeatherDisplay:10.37,2013-08-24 16:28:00,
2013-08-24 11:33:00,86.2,75.3,30.12,ESE,114,0.0,0.1,70,0.00,CLR,,0.00,WeatherDisplay:10.37,2013-08-24 16:33:00,
2013-08-24 11:38:00,86.0,74.2,30.12,East,88,1.1,0.0,68,0.00,CLR,,0.00,WeatherDisplay:10.37,2013-08-24 16:38:00,
2013-08-24 11:43:00,85.6,74.3,30.12,East,87,1.1,0.0,69,0.00,CLR,,0.00,WeatherDisplay:10.37,2013-08-24 16:43:00,
2013-08-24 11:48:00,85.4,74.1,30.11,East,87,0.0,0.0,69,0.00,CLR,,0.00,WeatherDisplay:10.37,2013-08-24 16:48:00,
2013-08-24 11:53:00,85.0,73.3,30.11,East,86,0.0,0.0,68,0.00,CLR,,0.00,WeatherDisplay:10.37,2013-08-24 16:53:00,
2013-08-24 11:58:00,85.0,72.8,30.11,East,88,0.0,0.0,67,0.00,CLR,,0.00,WeatherDisplay:10.37,2013-08-24 16:58:00,
2013-08-24 12:03:00,85.1,73.3,30.11,East,90,0.0,0.0,68,0.00,CLR,,0.00,WeatherDisplay:10.37,2013-08-24 17:03:00,
2013-08-24 12:08:00,85.4,72.7,30.11,East,93,0.0,0.0,66,0.00,CLR,,0.00,WeatherDisplay:10.37,2013-08-24 17:08:00,
2013-08-24 12:13:00,85.5,71.9,30.11,East,92,2.3,2.3,64,0.00,CLR,,0.00,WeatherDisplay:10.37,2013-08-24 17:13:00,
2013-08-24 12:18:00,85.6,71.6,30.11,East,92,0.0,0.0,63,0.00,CLR,,0.00,WeatherDisplay:10.37,2013-08-24 17:18:00,
2013-08-24 12:23:00,86.0,71.5,30.11,East,90,1.1,1.1,62,0.00,CLR,,0.00,WeatherDisplay:10.37,2013-08-24 17:23:00,
2013-08-24 12:28:00,86.0,72.9,30.11,ENE,59,1.1,1.1,65,0.00,CLR,,0.00,WeatherDisplay:10.37,2013-08-24 17:28:00,
2013-08-24 12:33:00,85.7,72.6,30.11,NE,43,2.3,2.3,65,0.00,CLR,,0.00,WeatherDisplay:10.37,2013-08-24 17:33:00,
2013-08-24 12:38:00,85.7,72.6,30.11,ENE,78,1.1,1.1,65,0.00,CLR,,0.00,WeatherDisplay:10.37,2013-08-24 17:38:00,
2013-08-24 12:43:00,85.9,72.8,30.10,ENE,70,1.1,0.0,65,0.00,CLR,,0.00,WeatherDisplay:10.37,2013-08-24 17:43:00,
2013-08-24 12:48:00,86.3,73.6,30.10,ENE,70,0.0,0.0,66,0.00,CLR,,0.00,WeatherDisplay:10.37,2013-08-24 17:48:00,
2013-08-24 12:53:00,86.4,72.8,30.10,NNW,343,1.1,1.1,64,0.00,CLR,,0.00,WeatherDisplay:10.37,2013-08-24 17:53:00,
2013-08-24 12:58:00,86.1,72.5,30.10,NNE,24,0.0,0.0,64,0.00,CLR,,0.00,WeatherDisplay:10.37,2013-08-24 17:58:00,
2013-08-24 13:03:00,86.0,71.9,30.10,ESE,112,1.1,1.1,63,0.00,CLR,,0.00,WeatherDisplay:10.37,2013-08-24 18:03:00,
2013-08-24 13:08:00,86.4,72.3,30.10,ENE,63,1.1,1.1,63,0.00,CLR,,0.00,WeatherDisplay:10.37,2013-08-24 18:08:00,
2013-08-24 13:13:00,86.0,71.9,30.10,NE,51,0.0,0.0,63,0.00,CLR,,0.00,WeatherDisplay:10.37,2013-08-24 18:13:00,
2013-08-24 13:18:00,85.5,71.0,30.10,NNE,28,1.1,1.1,62,0.00,CLR,,0.00,WeatherDisplay:10.37,2013-08-24 18:18:00,
2013-08-24 13:23:00,85.5,71.9,30.10,NE,42,2.0,2.0,64,0.00,CLR,,0.00,WeatherDisplay:10.37,2013-08-24 18:23:00,
2013-08-24 13:28:00,85.6,72.0,30.10,NE,47,1.1,1.1,64,0.00,CLR,,0.00,WeatherDisplay:10.37,2013-08-24 18:28:00,
2013-08-24 13:33:00,85.7,70.7,30.10,NNE,22,1.1,0.0,61,0.00,CLR,,0.00,WeatherDisplay:10.37,2013-08-24 18:33:00,
2013-08-24 13:38:00,85.8,71.3,30.10,NNE,22,1.1,1.1,62,0.00,CLR,,0.00,WeatherDisplay:10.37,2013-08-24 18:38:00,
2013-08-24 13:44:00,85.9,71.4,30.10,NNE,22,1.1,1.1,62,0.00,CLR,,0.00,WeatherDisplay:10.37,2013-08-24 18:44:00,
2013-08-24 13:49:00,85.9,71.4,30.10,NNE,24,1.0,1.0,62,0.00,CLR,,0.00,WeatherDisplay:10.37,2013-08-24 18:49:00,
2013-08-24 13:54:00,86.3,72.7,30.10,NNE,24,0.0,0.0,64,0.00,CLR,,0.00,WeatherDisplay:10.37,2013-08-24 18:54:00,
2013-08-24 13:59:00,86.6,71.5,30.10,NNE,24,1.1,1.1,61,0.00,CLR,,0.00,WeatherDisplay:10.37,2013-08-24 18:59:00,
2013-08-24 14:04:00,86.6,71.5,30.10,NNE,24,2.3,2.3,61,0.00,CLR,,0.00,WeatherDisplay:10.37,2013-08-24 19:04:00,
2013-08-24 14:09:00,86.5,70.5,30.10,NNE,24,1.1,0.0,59,0.00,CLR,,0.00,WeatherDisplay:10.37,2013-08-24 19:09:00,
2013-08-24 14:14:00,86.4,71.8,30.10,NNE,24,1.1,1.1,62,0.00,CLR,,0.00,WeatherDisplay:10.37,2013-08-24 19:14:00,
2013-08-24 14:19:00,86.5,71.0,30.10,ENE,68,1.1,1.1,60,0.00,CLR,,0.00,WeatherDisplay:10.37,2013-08-24 19:19:00,
2013-08-24 14:24:00,86.5,70.5,30.10,ENE,71,0.0,0.1,59,0.00,CLR,,0.00,WeatherDisplay:10.37,2013-08-24 19:24:00,
2013-08-24 14:29:00,86.7,71.2,30.10,NNE,17,1.1,1.1,60,0.00,CLR,,0.00,WeatherDisplay:10.37,2013-08-24 19:29:00,
2013-08-24 14:34:00,86.7,70.7,30.10,NNE,27,1.1,1.1,59,0.00,CLR,,0.00,WeatherDisplay:10.37,2013-08-24 19:34:00,
2013-08-24 14:39:00,86.6,70.1,30.10,NE,50,1.1,0.0,58,0.00,CLR,,0.00,WeatherDisplay:10.37,2013-08-24 19:39:00,
2013-08-24 14:44:00,86.5,70.0,30.09,NE,50,0.0,0.0,58,0.00,CLR,,0.00,WeatherDisplay:10.37,2013-08-24 19:44:00,
2013-08-24 14:49:00,86.7,70.7,30.09,NE,51,1.1,1.1,59,0.00,CLR,,0.00,WeatherDisplay:10.37,2013-08-24 19:49:00,
2013-08-24 14:54:00,86.8,70.8,30.09,NE,46,1.1,1.1,59,0.00,CLR,,0.00,WeatherDisplay:10.37,2013-08-24 19:54:00,
2013-08-24 14:59:00,87.1,71.0,30.09,NE,46,0.0,0.0,59,0.00,CLR,,0.00,WeatherDisplay:10.37,2013-08-24 19:59:00,
2013-08-24 15:04:00,87.1,71.5,30.09,NE,56,1.1,1.1,60,0.00,CLR,,0.00,WeatherDisplay:10.37,2013-08-24 20:04:00,
2013-08-24 15:09:00,87.4,72.3,30.09,ENE,65,1.1,1.1,61,0.00,CLR,,0.00,WeatherDisplay:10.37,2013-08-24 20:09:00,
2013-08-24 15:14:00,87.6,71.5,30.09,SE,130,1.1,1.1,59,0.00,CLR,,0.00,WeatherDisplay:10.37,2013-08-24 20:14:00,
2013-08-24 15:19:00,87.8,72.2,30.09,SE,130,0.0,0.0,60,0.00,CLR,,0.00,WeatherDisplay:10.37,2013-08-24 20:19:00,
2013-08-24 15:24:00,88.0,71.9,30.08,NE,56,1.1,1.1,59,0.00,CLR,,0.00,WeatherDisplay:10.37,2013-08-24 20:24:00,
2013-08-24 15:29:00,87.8,71.2,30.08,ESE,107,0.0,0.0,58,0.00,CLR,,0.00,WeatherDisplay:10.37,2013-08-24 20:29:00,
2013-08-24 15:34:00,87.8,71.7,30.08,ESE,106,1.0,0.0,59,0.00,CLR,,0.00,WeatherDisplay:10.37,2013-08-24 20:34:00,
2013-08-24 15:39:00,87.9,70.8,30.08,NNE,14,1.1,1.1,57,0.00,CLR,,0.00,WeatherDisplay:10.37,2013-08-24 20:39:00,
2013-08-24 15:44:00,87.7,71.6,30.08,NE,44,0.0,0.0,59,0.00,CLR,,0.00,WeatherDisplay:10.37,2013-08-24 20:44:00,
2013-08-24 15:49:00,87.5,71.4,30.08,ENE,61,1.1,1.1,59,0.00,CLR,,0.00,WeatherDisplay:10.37,2013-08-24 20:49:00,
2013-08-24 15:54:00,87.4,70.8,30.08,ENE,61,0.0,0.0,58,0.00,CLR,,0.00,WeatherDisplay:10.37,2013-08-24 20:54:00,
2013-08-24 15:59:00,87.3,71.2,30.08,ENE,61,0.0,0.0,59,0.00,CLR,,0.00,WeatherDisplay:10.37,2013-08-24 20:59:00,
2013-08-24 16:04:00,87.4,71.3,30.08,ENE,61,0.0,0.0,59,0.00,CLR,,0.00,WeatherDisplay:10.37,2013-08-24 21:04:00,
2013-08-24 16:09:00,87.5,71.9,30.08,East,94,0.0,0.0,60,0.00,CLR,,0.00,WeatherDisplay:10.37,2013-08-24 21:09:00,
2013-08-24 16:14:00,87.8,71.7,30.08,East,97,1.1,1.1,59,0.00,CLR,,0.00,WeatherDisplay:10.37,2013-08-24 21:14:00,
2013-08-24 16:19:00,87.7,71.6,30.08,East,92,0.0,0.0,59,0.00,CLR,,0.00,WeatherDisplay:10.37,2013-08-24 21:19:00,
2013-08-24 16:24:00,87.6,70.5,30.08,East,92,0.0,0.0,57,0.00,CLR,,0.00,WeatherDisplay:10.37,2013-08-24 21:24:00,
2013-08-24 16:29:00,87.6,72.0,30.08,East,92,0.0,0.0,60,0.00,CLR,,0.00,WeatherDisplay:10.37,2013-08-24 21:29:00,
2013-08-24 16:34:00,87.8,72.7,30.08,East,92,0.0,0.0,61,0.00,CLR,,0.00,WeatherDisplay:10.37,2013-08-24 21:34:00,
2013-08-24 16:39:00,87.8,72.2,30.08,East,92,0.0,0.0,60,0.00,CLR,,0.00,WeatherDisplay:10.37,2013-08-24 21:39:00,
2013-08-24 16:44:00,86.9,70.3,30.08,East,82,1.1,1.1,58,0.00,CLR,,0.00,WeatherDisplay:10.37,2013-08-24 21:44:00,
2013-08-24 16:49:00,86.2,70.7,30.08,East,82,0.0,0.0,60,0.00,CLR,,0.00,WeatherDisplay:10.37,2013-08-24 21:49:00,
2013-08-24 16:54:00,86.0,70.5,30.08,East,82,0.0,0.0,60,0.00,CLR,,0.00,WeatherDisplay:10.37,2013-08-24 21:54:00,
2013-08-24 16:59:00,86.4,72.3,30.08,East,83,0.0,0.0,63,0.00,CLR,,0.00,WeatherDisplay:10.37,2013-08-24 21:59:00,
2013-08-24 17:04:00,86.8,71.7,30.08,East,83,0.0,0.0,61,0.00,CLR,,0.00,WeatherDisplay:10.37,2013-08-24 22:04:00,
2013-08-24 17:09:00,87.0,71.4,30.08,ENE,74,1.1,0.0,60,0.00,CLR,,0.00,WeatherDisplay:10.37,2013-08-24 22:09:00,
2013-08-24 17:14:00,87.0,71.9,30.08,ENE,74,0.0,0.0,61,0.00,CLR,,0.00,WeatherDisplay:10.37,2013-08-24 22:14:00,
2013-08-24 17:19:00,87.2,72.1,30.08,ENE,74,1.1,1.1,61,0.00,CLR,,0.00,WeatherDisplay:10.37,2013-08-24 22:19:00,
2013-08-24 17:24:00,87.2,72.1,30.08,ENE,74,0.0,0.0,61,0.00,CLR,,0.00,WeatherDisplay:10.37,2013-08-24 22:24:00,
2013-08-24 17:29:00,87.3,72.2,30.08,ENE,74,0.0,0.0,61,0.00,CLR,,0.00,WeatherDisplay:10.37,2013-08-24 22:29:00,
2013-08-24 17:34:00,87.0,71.9,30.08,ENE,74,0.0,0.0,61,0.00,CLR,,0.00,WeatherDisplay:10.37,2013-08-24 22:34:00,
2013-08-24 17:39:00,87.0,71.9,30.08,ENE,74,0.0,0.0,61,0.00,CLR,,0.00,WeatherDisplay:10.37,2013-08-24 22:39:00,
2013-08-24 17:44:00,86.8,71.7,30.08,ENE,74,0.0,0.0,61,0.00,CLR,,0.00,WeatherDisplay:10.37,2013-08-24 22:44:00,
2013-08-24 17:49:00,86.6,72.5,30.08,ENE,74,0.0,0.0,63,0.00,CLR,,0.00,WeatherDisplay:10.37,2013-08-24 22:49:00,
2013-08-24 17:54:00,86.3,71.7,30.08,ENE,74,0.0,0.0,62,0.00,CLR,,0.00,WeatherDisplay:10.37,2013-08-24 22:54:00,
2013-08-24 17:59:00,86.2,72.6,30.07,ENE,74,0.0,0.0,64,0.00,CLR,,0.00,WeatherDisplay:10.37,2013-08-24 22:59:00,
2013-08-24 18:04:00,86.0,71.9,30.07,ENE,74,0.0,0.0,63,0.00,CLR,,0.00,WeatherDisplay:10.37,2013-08-24 23:04:00,
2013-08-24 18:09:00,85.8,72.2,30.07,ENE,74,0.0,0.0,64,0.00,CLR,,0.00,WeatherDisplay:10.37,2013-08-24 23:09:00,
2013-08-24 18:14:00,85.6,72.0,30.07,ENE,74,0.0,0.0,64,0.00,CLR,,0.00,WeatherDisplay:10.37,2013-08-24 23:14:00,
2013-08-24 18:19:00,85.4,72.3,30.07,ENE,74,0.0,0.0,65,0.00,CLR,,0.00,WeatherDisplay:10.37,2013-08-24 23:19:00,
2013-08-24 18:24:00,85.2,72.6,30.07,ENE,74,0.0,0.0,66,0.00,CLR,,0.00,WeatherDisplay:10.37,2013-08-24 23:24:00,
2013-08-24 18:29:00,85.2,72.6,30.07,ENE,74,0.0,0.0,66,0.00,CLR,,0.00,WeatherDisplay:10.37,2013-08-24 23:29:00,
2013-08-24 18:34:00,84.9,72.7,30.07,ENE,74,0.0,0.0,67,0.00,CLR,,0.00,WeatherDisplay:10.37,2013-08-24 23:34:00,
2013-08-24 18:39:00,84.5,72.8,30.07,ENE,74,0.0,0.0,68,0.00,CLR,,0.00,WeatherDisplay:10.37,2013-08-24 23:39:00,
2013-08-24 18:44:00,84.1,72.4,30.07,ENE,74,0.0,0.0,68,0.00,CLR,,0.00,WeatherDisplay:10.37,2013-08-24 23:44:00,
2013-08-24 18:49:00,83.8,72.1,30.07,ENE,74,0.0,0.0,68,0.00,CLR,,0.00,WeatherDisplay:10.37,2013-08-24 23:49:00,
2013-08-24 18:54:00,83.5,72.3,30.07,ENE,74,0.0,0.0,69,0.00,CLR,,0.00,WeatherDisplay:10.37,2013-08-24 23:54:00,
2013-08-24 18:59:00,83.2,72.4,30.07,ENE,74,0.0,0.0,70,0.00,CLR,,0.00,WeatherDisplay:10.37,2013-08-24 23:59:00,
2013-08-24 19:04:00,83.0,72.6,30.07,ENE,74,0.0,0.0,71,0.00,CLR,,0.00,WeatherDisplay:10.37,2013-08-25 00:04:00,
2013-08-24 19:09:00,82.8,72.8,30.07,ENE,74,0.0,0.0,72,0.00,CLR,,0.00,WeatherDisplay:10.37,2013-08-25 00:09:00,
2013-08-24 19:14:00,82.6,72.7,30.07,ENE,74,0.0,0.0,72,0.00,CLR,,0.00,WeatherDisplay:10.37,2013-08-25 00:14:00,
2013-08-24 19:19:00,82.2,72.7,30.08,ENE,74,0.0,0.0,73,0.00,CLR,,0.00,WeatherDisplay:10.37,2013-08-25 00:19:00,
2013-08-24 19:24:00,81.8,73.1,30.08,ENE,74,0.0,0.0,75,0.00,CLR,,0.00,WeatherDisplay:10.37,2013-08-25 00:24:00,
2013-08-24 19:29:00,81.3,73.0,30.08,ENE,74,0.0,0.0,76,0.00,CLR,,0.00,WeatherDisplay:10.37,2013-08-25 00:29:00,
2013-08-24 19:34:00,80.8,72.9,30.08,ENE,74,0.0,0.0,77,0.00,CLR,,0.00,WeatherDisplay:10.37,2013-08-25 00:34:00,
2013-08-24 19:39:00,80.4,72.9,30.08,ENE,74,0.0,0.0,78,0.00,CLR,,0.00,WeatherDisplay:10.37,2013-08-25 00:39:00,
2013-08-24 19:45:00,80.0,72.9,30.08,ENE,74,0.0,0.0,79,0.00,CLR,,0.00,WeatherDisplay:10.37,2013-08-25 00:45:00,
2013-08-24 19:50:00,79.5,72.8,30.08,ENE,74,0.0,0.0,80,0.00,CLR,,0.00,WeatherDisplay:10.37,2013-08-25 00:50:00,
2013-08-24 19:55:00,79.1,72.4,30.08,ENE,74,0.0,0.0,80,0.00,CLR,,0.00,WeatherDisplay:10.37,2013-08-25 00:55:00,
2013-08-24 20:00:00,78.7,72.4,30.08,ENE,74,0.0,0.0,81,0.00,CLR,,0.00,WeatherDisplay:10.37,2013-08-25 01:00:00,
2013-08-24 20:05:00,78.3,72.0,30.09,ENE,74,0.0,0.0,81,0.00,CLR,,0.00,WeatherDisplay:10.37,2013-08-25 01:05:00,
2013-08-24 20:10:00,77.8,71.9,30.08,ENE,74,0.0,0.0,82,0.00,CLR,,0.00,WeatherDisplay:10.37,2013-08-25 01:10:00,
2013-08-24 20:15:00,77.6,71.7,30.09,ENE,74,0.0,0.0,82,0.00,CLR,,0.00,WeatherDisplay:10.37,2013-08-25 01:15:00,
2013-08-24 20:20:00,77.2,71.6,30.09,ENE,74,0.0,0.0,83,0.00,CLR,,0.00,WeatherDisplay:10.37,2013-08-25 01:20:00,
2013-08-24 20:25:00,76.9,71.3,30.09,ENE,74,0.0,0.0,83,0.00,CLR,,0.00,WeatherDisplay:10.37,2013-08-25 01:25:00,
2013-08-24 20:30:00,76.5,71.3,30.09,ENE,74,0.0,0.0,84,0.00,CLR,,0.00,WeatherDisplay:10.37,2013-08-25 01:30:00,
2013-08-24 20:35:00,76.1,70.9,30.09,ENE,74,0.0,0.0,84,0.00,CLR,,0.00,WeatherDisplay:10.37,2013-08-25 01:35:00,
2013-08-24 20:40:00,75.6,70.8,30.09,ENE,74,0.0,0.0,85,0.00,CLR,,0.00,WeatherDisplay:10.37,2013-08-25 01:40:00,
2013-08-24 20:45:00,75.3,70.5,30.10,ENE,74,0.0,0.0,85,0.00,CLR,,0.00,WeatherDisplay:10.37,2013-08-25 01:45:00,
2013-08-24 20:50:00,74.9,70.4,30.10,ENE,74,0.0,0.0,86,0.00,CLR,,0.00,WeatherDisplay:10.37,2013-08-25 01:50:00,
2013-08-24 20:55:00,74.6,70.5,30.10,ENE,74,0.0,0.0,87,0.00,CLR,,0.00,WeatherDisplay:10.37,2013-08-25 01:55:00,
2013-08-24 21:00:00,74.4,70.6,30.10,ENE,74,0.0,0.0,88,0.00,CLR,,0.00,WeatherDisplay:10.37,2013-08-25 02:00:00,
2013-08-24 21:05:00,74.2,70.4,30.10,ENE,74,0.0,0.0,88,0.00,CLR,,0.00,WeatherDisplay:10.37,2013-08-25 02:05:00,
2013-08-24 21:10:00,73.9,70.1,30.10,ENE,74,0.0,0.0,88,0.00,CLR,,0.00,WeatherDisplay:10.37,2013-08-25 02:10:00,
2013-08-24 21:15:00,73.8,70.4,30.11,ENE,74,0.0,0.0,89,0.00,CLR,,0.00,WeatherDisplay:10.37,2013-08-25 02:15:00,
2013-08-24 21:20:00,73.6,70.2,30.11,ENE,74,0.0,0.0,89,0.00,CLR,,0.00,WeatherDisplay:10.37,2013-08-25 02:20:00,
2013-08-24 21:25:00,73.5,70.0,30.11,ENE,74,0.0,0.0,89,0.00,CLR,,0.00,WeatherDisplay:10.37,2013-08-25 02:25:00,
2013-08-24 21:30:00,73.4,70.3,30.11,ENE,74,0.0,0.0,90,0.00,CLR,,0.00,WeatherDisplay:10.37,2013-08-25 02:30:00,
2013-08-24 21:35:00,73.5,70.4,30.11,ENE,74,0.0,0.0,90,0.00,CLR,,0.00,WeatherDisplay:10.37,2013-08-25 02:35:00,
2013-08-24 21:40:00,73.5,70.4,30.12,ENE,74,0.0,0.0,90,0.00,CLR,,0.00,WeatherDisplay:10.37,2013-08-25 02:40:00,
2013-08-24 21:45:00,73.4,70.3,30.12,ENE,74,0.0,0.0,90,0.00,CLR,,0.00,WeatherDisplay:10.37,2013-08-25 02:45:00,
2013-08-24 21:50:00,73.3,70.2,30.12,ENE,74,0.0,0.0,90,0.00,CLR,,0.00,WeatherDisplay:10.37,2013-08-25 02:50:00,
2013-08-24 21:55:00,73.1,70.0,30.12,ENE,74,0.0,0.0,90,0.00,CLR,,0.00,WeatherDisplay:10.37,2013-08-25 02:55:00,
2013-08-24 22:00:00,73.1,70.0,30.12,ENE,74,0.0,0.0,90,0.00,CLR,,0.00,WeatherDisplay:10.37,2013-08-25 03:00:00,
2013-08-24 22:05:00,73.2,70.1,30.12,ENE,74,0.0,0.0,90,0.00,CLR,,0.00,WeatherDisplay:10.37,2013-08-25 03:05:00,
2013-08-24 22:10:00,73.3,70.2,30.12,ENE,74,0.0,0.0,90,0.00,CLR,,0.00,WeatherDisplay:10.37,2013-08-25 03:10:00,
2013-08-24 22:15:00,73.4,70.3,30.12,ENE,74,0.0,0.0,90,0.00,CLR,,0.00,WeatherDisplay:10.37,2013-08-25 03:15:00,
2013-08-24 22:20:00,73.4,70.3,30.12,ENE,74,0.0,0.0,90,0.00,CLR,,0.00,WeatherDisplay:10.37,2013-08-25 03:20:00,
2013-08-24 22:25:00,73.4,70.3,30.12,ENE,74,0.0,0.0,90,0.00,CLR,,0.00,WeatherDisplay:10.37,2013-08-25 03:25:00,
2013-08-24 22:30:00,73.3,69.9,30.12,ENE,74,0.0,0.0,89,0.00,CLR,,0.00,WeatherDisplay:10.37,2013-08-25 03:30:00,
2013-08-24 22:35:00,73.3,69.9,30.12,ENE,74,0.0,0.0,89,0.00,CLR,,0.00,WeatherDisplay:10.37,2013-08-25 03:35:00,
2013-08-24 22:40:00,73.4,70.0,30.12,ENE,74,0.0,0.0,89,0.00,CLR,,0.00,WeatherDisplay:10.37,2013-08-25 03:40:00,
2013-08-24 22:45:00,73.3,69.9,30.12,ENE,74,0.0,0.0,89,0.00,CLR,,0.00,WeatherDisplay:10.37,2013-08-25 03:45:00,
2013-08-24 22:50:00,73.3,69.9,30.12,ENE,74,0.0,0.0,89,0.00,CLR,,0.00,WeatherDisplay:10.37,2013-08-25 03:50:00,
2013-08-24 22:55:00,73.2,69.8,30.12,ENE,74,0.0,0.0,89,0.00,CLR,,0.00,WeatherDisplay:10.37,2013-08-25 03:55:00,
2013-08-24 23:00:00,73.1,69.7,30.12,ENE,74,0.0,0.0,89,0.00,CLR,,0.00,WeatherDisplay:10.37,2013-08-25 04:00:00,
2013-08-24 23:01:00,73.1,69.7,30.12,ENE,74,0.0,0.0,89,0.00,CLR,,0.00,WeatherDisplay:10.37,2013-08-25 04:01:00,
2013-08-24 23:02:00,73.0,69.6,30.12,ENE,74,0.0,0.0,89,0.00,CLR,,0.00,WeatherDisplay:10.37,2013-08-25 04:02:00,
2013-08-24 23:07:00,73.0,69.6,30.12,ENE,74,0.0,0.0,89,0.00,CLR,,0.00,WeatherDisplay:10.37,2013-08-25 04:07:00,
2013-08-24 23:12:00,73.1,69.3,30.12,ENE,74,0.0,0.0,88,0.00,CLR,,0.00,WeatherDisplay:10.37,2013-08-25 04:12:00,
2013-08-24 23:17:00,73.2,69.4,30.12,ENE,74,0.0,0.0,88,0.00,CLR,,0.00,WeatherDisplay:10.37,2013-08-25 04:17:00,
2013-08-24 23:22:00,73.4,69.6,30.12,ENE,74,0.0,0.0,88,0.00,CLR,,0.00,WeatherDisplay:10.37,2013-08-25 04:22:00,
2013-08-24 23:27:00,73.5,69.4,30.12,ENE,74,0.0,0.0,87,0.00,CLR,,0.00,WeatherDisplay:10.37,2013-08-25 04:27:00,
2013-08-24 23:32:00,73.6,69.2,30.12,ENE,74,0.0,0.0,86,0.00,CLR,,0.00,WeatherDisplay:10.37,2013-08-25 04:32:00,
2013-08-24 23:37:00,73.6,69.2,30.12,ENE,74,0.0,0.0,86,0.00,CLR,,0.00,WeatherDisplay:10.37,2013-08-25 04:37:00,
2013-08-24 23:42:00,73.6,69.2,30.12,ENE,74,0.0,0.0,86,0.00,CLR,,0.00,WeatherDisplay:10.37,2013-08-25 04:42:00,
2013-08-24 23:47:00,73.5,69.1,30.12,ENE,74,0.0,0.0,86,0.00,CLR,,0.00,WeatherDisplay:10.37,2013-08-25 04:47:00,
2013-08-24 23:52:00,73.4,69.3,30.12,ENE,74,0.0,0.0,87,0.00,CLR,,0.00,WeatherDisplay:10.37,2013-08-25 04:52:00,
2013-08-24 23:57:00,73.3,69.2,30.12,ENE,74,0.0,0.0,87,0.00,CLR,,0.00,WeatherDisplay:10.37,2013-08-25 04:57:00,